Time,TemperatureF,DewpointF,PressureIn,WindDirection,WindDirectionDegrees,WindSpeedMPH,WindSpeedGustMPH,Humidity,HourlyPrecipIn,Conditions,Clouds,dailyrainin,SoftwareType,DateUTC
2013-07-03 00:02:00,67.9,50.1,30.09,ESE,103,1.0,30.0,53,0.00,,,0.00,Wunderground v.1.15,2013-07-03 05:02:00,
2013-07-03 00:12:00,67.8,50.0,30.09,ESE,103,1.0,30.0,53,0.00,,,0.00,Wunderground v.1.15,2013-07-03 05:12:00,
2013-07-03 00:22:00,67.9,50.1,30.09,ESE,117,2.0,30.0,53,0.00,,,0.00,Wunderground v.1.15,2013-07-03 05:22:00,
2013-07-03 00:32:00,67.6,50.4,30.09,ESE,115,2.0,2.0,54,0.00,,,0.00,Wunderground v.1.15,2013-07-03 05:32:00,
2013-07-03 00:42:00,67.1,49.9,30.09,SE,127,1.0,1.0,54,0.00,,,0.00,Wunderground v.1.15,2013-07-03 05:42:00,
2013-07-03 00:52:00,66.6,49.9,30.09,SE,127,0.0,30.0,55,0.00,,,0.00,Wunderground v.1.15,2013-07-03 05:52:00,
2013-07-03 01:02:00,66.2,50.0,30.08,SSE,162,0.0,30.0,56,0.00,,,0.00,Wunderground v.1.15,2013-07-03 06:02:00,
2013-07-03 01:12:00,66.1,50.4,30.08,SSE,165,1.0,30.0,57,0.00,,,0.00,Wunderground v.1.15,2013-07-03 06:12:00,
2013-07-03 01:32:00,65.8,50.6,30.08,South,170,1.0,1.0,58,0.00,,,0.00,Wunderground v.1.15,2013-07-03 06:32:00,
2013-07-03 01:42:00,65.4,50.7,30.08,South,174,1.0,1.0,59,0.00,,,0.00,Wunderground v.1.15,2013-07-03 06:42:00,
2013-07-03 01:52:00,64.9,51.6,30.08,South,174,0.0,30.0,62,0.00,,,0.00,Wunderground v.1.15,2013-07-03 06:52:00,
2013-07-03 02:02:00,64.8,50.6,30.08,SW,228,0.0,30.0,60,0.00,,,0.00,Wunderground v.1.15,2013-07-03 07:02:00,
2013-07-03 02:12:00,64.9,50.7,30.08,SW,225,1.0,30.0,60,0.00,,,0.00,Wunderground v.1.15,2013-07-03 07:12:00,
2013-07-03 02:22:00,65.0,50.8,30.08,WSW,238,1.0,30.0,60,0.00,,,0.00,Wunderground v.1.15,2013-07-03 07:22:00,
2013-07-03 02:32:00,65.0,50.8,30.08,SW,236,1.0,30.0,60,0.00,,,0.00,Wunderground v.1.15,2013-07-03 07:32:00,
2013-07-03 02:42:00,64.8,51.0,30.07,SW,218,2.0,30.0,61,0.00,,,0.00,Wunderground v.1.15,2013-07-03 07:42:00,
2013-07-03 02:52:00,64.9,51.1,30.07,SW,214,2.0,2.0,61,0.00,,,0.00,Wunderground v.1.15,2013-07-03 07:52:00,
2013-07-03 03:12:00,64.5,51.2,30.08,WSW,246,0.0,30.0,62,0.00,,,0.00,Wunderground v.1.15,2013-07-03 08:12:00,
2013-07-03 03:22:00,64.3,51.4,30.08,WSW,246,0.0,30.0,63,0.00,,,0.00,Wunderground v.1.15,2013-07-03 08:22:00,
2013-07-03 03:32:00,64.5,50.7,30.07,WSW,239,0.0,30.0,61,0.00,,,0.00,Wunderground v.1.15,2013-07-03 08:32:00,
2013-07-03 03:42:00,64.4,50.7,30.07,WSW,237,0.0,30.0,61,0.00,,,0.00,Wunderground v.1.15,2013-07-03 08:42:00,
2013-07-03 03:52:00,64.3,51.0,30.07,West,259,1.0,30.0,62,0.00,,,0.00,Wunderground v.1.15,2013-07-03 08:52:00,
2013-07-03 04:02:00,64.3,51.0,30.07,WSW,250,1.0,30.0,62,0.00,,,0.00,Wunderground v.1.15,2013-07-03 09:02:00,
2013-07-03 04:22:00,64.1,50.8,30.06,WSW,253,1.0,30.0,62,0.00,,,0.00,Wunderground v.1.15,2013-07-03 09:22:00,
2013-07-03 04:32:00,63.9,50.6,30.06,SSE,166,1.0,30.0,62,0.00,,,0.00,Wunderground v.1.15,2013-07-03 09:32:00,
2013-07-03 04:42:00,63.9,50.6,30.06,SSW,196,2.0,2.0,62,0.00,,,0.00,Wunderground v.1.15,2013-07-03 09:42:00,
2013-07-03 04:52:00,63.8,51.4,30.06,SW,233,1.0,30.0,64,0.00,,,0.00,Wunderground v.1.15,2013-07-03 09:52:00,
2013-07-03 05:02:00,63.9,51.1,30.06,SW,226,1.0,1.0,63,0.00,,,0.00,Wunderground v.1.15,2013-07-03 10:02:00,
2013-07-03 05:12:00,63.9,51.1,30.06,WSW,246,0.0,30.0,63,0.00,,,0.00,Wunderground v.1.15,2013-07-03 10:12:00,
2013-07-03 05:42:00,63.8,51.8,30.07,West,271,2.0,30.0,65,0.00,,,0.00,Wunderground v.1.15,2013-07-03 10:42:00,
2013-07-03 05:52:00,63.9,51.9,30.07,WSW,252,1.0,1.0,65,0.00,,,0.00,Wunderground v.1.15,2013-07-03 10:52:00,
2013-07-03 06:02:00,63.9,52.3,30.07,WSW,250,0.0,30.0,66,0.00,,,0.00,Wunderground v.1.15,2013-07-03 11:02:00,
2013-07-03 06:12:00,63.9,52.3,30.07,WSW,252,0.0,30.0,66,0.00,,,0.00,Wunderground v.1.15,2013-07-03 11:12:00,
2013-07-03 06:22:00,63.7,52.9,30.07,West,269,0.0,30.0,68,0.00,,,0.00,Wunderground v.1.15,2013-07-03 11:22:00,
2013-07-03 06:32:00,63.6,52.4,30.07,WNW,282,0.0,30.0,67,0.00,,,0.00,Wunderground v.1.15,2013-07-03 11:32:00,
2013-07-03 06:41:00,63.5,52.3,30.07,WSW,257,1.0,1.0,67,0.00,,,0.00,Wunderground v.1.15,2013-07-03 11:41:00,
2013-07-03 06:51:00,63.2,52.9,30.07,WSW,256,0.0,30.0,69,0.00,,,0.00,Wunderground v.1.15,2013-07-03 11:51:00,
2013-07-03 07:02:00,63.2,52.5,30.07,SSW,198,0.0,30.0,68,0.00,,,0.00,Wunderground v.1.15,2013-07-03 12:02:00,
2013-07-03 07:12:00,63.0,53.1,30.08,SE,145,0.0,30.0,70,0.00,,,0.00,Wunderground v.1.15,2013-07-03 12:12:00,
2013-07-03 07:22:00,63.4,55.7,30.08,SSE,163,0.0,30.0,76,0.00,,,0.00,Wunderground v.1.15,2013-07-03 12:22:00,
2013-07-03 07:32:00,63.3,53.3,30.08,SSE,164,0.0,30.0,70,0.00,,,0.00,Wunderground v.1.15,2013-07-03 12:32:00,
2013-07-03 07:42:00,64.1,54.1,30.08,SSE,167,0.0,30.0,70,0.00,,,0.00,Wunderground v.1.15,2013-07-03 12:42:00,
2013-07-03 07:52:00,64.4,55.2,30.08,WSW,250,1.0,30.0,72,0.00,,,0.00,Wunderground v.1.15,2013-07-03 12:52:00,
2013-07-03 08:02:00,64.8,54.4,30.08,SSW,200,1.0,30.0,69,0.00,,,0.00,Wunderground v.1.15,2013-07-03 13:02:00,
2013-07-03 08:12:00,66.2,55.3,30.08,WSW,256,2.0,30.0,68,0.00,,,0.00,Wunderground v.1.15,2013-07-03 13:12:00,
2013-07-03 08:22:00,66.7,55.4,30.08,WSW,250,4.0,30.0,67,0.00,,,0.00,Wunderground v.1.15,2013-07-03 13:22:00,
2013-07-03 08:32:00,67.0,54.8,30.09,WSW,248,3.0,3.0,65,0.00,,,0.00,Wunderground v.1.15,2013-07-03 13:32:00,
2013-07-03 08:42:00,67.4,53.0,30.09,SW,233,3.0,30.0,60,0.00,,,0.00,Wunderground v.1.15,2013-07-03 13:42:00,
2013-07-03 08:52:00,67.6,54.1,30.09,SW,226,3.0,30.0,62,0.00,,,0.00,Wunderground v.1.15,2013-07-03 13:52:00,
2013-07-03 09:02:00,67.7,54.2,30.10,WSW,245,2.0,30.0,62,0.00,,,0.00,Wunderground v.1.15,2013-07-03 14:02:00,
2013-07-03 09:12:00,67.9,54.8,30.10,SW,216,1.0,1.0,63,0.00,,,0.00,Wunderground v.1.15,2013-07-03 14:12:00,
2013-07-03 09:22:00,67.7,54.2,30.10,SW,233,1.0,30.0,62,0.00,,,0.00,Wunderground v.1.15,2013-07-03 14:22:00,
2013-07-03 09:32:00,67.9,56.1,30.10,ESE,105,0.0,30.0,66,0.00,,,0.00,Wunderground v.1.15,2013-07-03 14:32:00,
2013-07-03 09:42:00,67.5,56.2,30.11,WNW,293,0.0,30.0,67,0.00,,,0.00,Wunderground v.1.15,2013-07-03 14:42:00,
2013-07-03 09:52:00,67.3,55.1,30.11,NW,316,5.0,5.0,65,0.00,,,0.00,Wunderground v.1.15,2013-07-03 14:52:00,
2013-07-03 10:02:00,67.7,53.3,30.11,NW,316,4.0,4.0,60,0.00,,,0.00,Wunderground v.1.15,2013-07-03 15:02:00,
2013-07-03 10:12:00,67.9,53.5,30.11,NNW,339,4.0,30.0,60,0.00,,,0.00,Wunderground v.1.15,2013-07-03 15:12:00,
2013-07-03 10:22:00,67.8,54.3,30.11,North,11,5.0,30.0,62,0.00,,,0.00,Wunderground v.1.15,2013-07-03 15:22:00,
2013-07-03 10:31:00,67.4,55.2,30.11,NW,313,5.0,5.0,65,0.00,,,0.00,Wunderground v.1.15,2013-07-03 15:31:00,
2013-07-03 10:41:00,67.9,55.7,30.10,WNW,300,5.0,30.0,65,0.00,,,0.00,Wunderground v.1.15,2013-07-03 15:41:00,
2013-07-03 11:02:00,72.2,54.1,30.09,WNW,295,3.0,30.0,53,0.00,,,0.00,Wunderground v.1.15,2013-07-03 16:02:00,
2013-07-03 11:12:00,74.1,54.8,30.09,NNE,23,4.0,30.0,51,0.00,,,0.00,Wunderground v.1.15,2013-07-03 16:12:00,
2013-07-03 11:22:00,73.9,53.5,30.09,NE,47,4.0,30.0,49,0.00,,,0.00,Wunderground v.1.15,2013-07-03 16:22:00,
2013-07-03 11:32:00,75.0,52.2,30.09,North,354,3.0,3.0,45,0.00,,,0.00,Wunderground v.1.15,2013-07-03 16:32:00,
2013-07-03 11:42:00,76.1,52.0,30.08,West,259,2.0,2.0,43,0.00,,,0.00,Wunderground v.1.15,2013-07-03 16:42:00,
2013-07-03 11:52:00,76.5,51.0,30.08,NNE,20,1.0,30.0,41,0.00,,,0.00,Wunderground v.1.15,2013-07-03 16:52:00,
2013-07-03 12:02:00,75.4,53.2,30.08,NW,311,2.0,30.0,46,0.00,,,0.00,Wunderground v.1.15,2013-07-03 17:02:00,
2013-07-03 12:12:00,75.7,54.0,30.08,ENE,75,2.0,2.0,47,0.00,,,0.00,Wunderground v.1.15,2013-07-03 17:12:00,
2013-07-03 12:22:00,76.1,52.6,30.08,ESE,110,1.0,1.0,44,0.00,,,0.00,Wunderground v.1.15,2013-07-03 17:22:00,
2013-07-03 12:32:00,78.4,52.7,30.08,West,262,1.0,30.0,41,0.00,,,0.00,Wunderground v.1.15,2013-07-03 17:32:00,
2013-07-03 12:42:00,79.2,51.4,30.07,SSW,212,3.0,3.0,38,0.00,,,0.00,Wunderground v.1.15,2013-07-03 17:42:00,
2013-07-03 12:52:00,80.5,51.8,30.07,ESE,111,2.0,30.0,37,0.00,,,0.00,Wunderground v.1.15,2013-07-03 17:52:00,
2013-07-03 13:02:00,80.8,50.6,30.06,WSW,245,2.0,2.0,35,0.00,,,0.00,Wunderground v.1.15,2013-07-03 18:02:00,
2013-07-03 13:12:00,80.4,51.0,30.06,WSW,246,2.0,30.0,36,0.00,,,0.00,Wunderground v.1.15,2013-07-03 18:12:00,
2013-07-03 13:22:00,79.8,52.6,30.05,East,82,2.0,30.0,39,0.00,,,0.00,Wunderground v.1.15,2013-07-03 18:22:00,
2013-07-03 13:32:00,80.8,50.6,30.05,SSW,192,3.0,3.0,35,0.00,,,0.00,Wunderground v.1.15,2013-07-03 18:32:00,
2013-07-03 13:42:00,81.1,50.1,30.04,ENE,60,4.0,30.0,34,0.00,,,0.00,Wunderground v.1.15,2013-07-03 18:42:00,
2013-07-03 13:52:00,81.6,52.1,30.04,West,260,5.0,5.0,36,0.00,,,0.00,Wunderground v.1.15,2013-07-03 18:52:00,
2013-07-03 14:02:00,81.2,49.4,30.04,WNW,285,4.0,4.0,33,0.00,,,0.00,Wunderground v.1.15,2013-07-03 19:02:00,
2013-07-03 14:12:00,81.0,52.3,30.03,ESE,108,4.0,30.0,37,0.00,,,0.00,Wunderground v.1.15,2013-07-03 19:12:00,
2013-07-03 14:22:00,81.6,51.3,30.03,SE,125,4.0,30.0,35,0.00,,,0.00,Wunderground v.1.15,2013-07-03 19:22:00,
2013-07-03 14:32:00,81.7,50.6,30.03,South,185,4.0,30.0,34,0.00,,,0.00,Wunderground v.1.15,2013-07-03 19:32:00,
2013-07-03 14:42:00,81.7,49.8,30.02,SSE,159,4.0,4.0,33,0.00,,,0.00,Wunderground v.1.15,2013-07-03 19:42:00,
2013-07-03 14:52:00,82.1,52.5,30.02,ESE,122,4.0,30.0,36,0.00,,,0.00,Wunderground v.1.15,2013-07-03 19:52:00,
2013-07-03 15:02:00,82.3,51.1,30.02,East,83,6.0,30.0,34,0.00,,,0.00,Wunderground v.1.15,2013-07-03 20:02:00,
2013-07-03 15:12:00,83.4,51.3,30.02,SW,226,6.0,6.0,33,0.00,,,0.00,Wunderground v.1.15,2013-07-03 20:12:00,
2013-07-03 15:22:00,83.6,50.6,30.01,East,101,5.0,30.0,32,0.00,,,0.00,Wunderground v.1.15,2013-07-03 20:22:00,
2013-07-03 15:32:00,83.6,49.8,30.01,ENE,71,3.0,30.0,31,0.00,,,0.00,Wunderground v.1.15,2013-07-03 20:32:00,
2013-07-03 15:42:00,83.0,51.7,30.01,SE,131,5.0,30.0,34,0.00,,,0.00,Wunderground v.1.15,2013-07-03 20:42:00,
2013-07-03 15:52:00,83.4,48.7,30.00,SSW,211,5.0,5.0,30,0.00,,,0.00,Wunderground v.1.15,2013-07-03 20:52:00,
2013-07-03 16:12:00,84.8,51.7,29.99,West,271,3.0,30.0,32,0.00,,,0.00,Wunderground v.1.15,2013-07-03 21:12:00,
2013-07-03 16:22:00,85.2,50.3,29.99,ENE,73,3.0,30.0,30,0.00,,,0.00,Wunderground v.1.15,2013-07-03 21:22:00,
2013-07-03 16:31:00,84.9,50.0,29.99,SE,146,4.0,4.0,30,0.00,,,0.00,Wunderground v.1.15,2013-07-03 21:31:00,
2013-07-03 16:42:00,84.3,49.5,29.98,SW,224,2.0,2.0,30,0.00,,,0.00,Wunderground v.1.15,2013-07-03 21:42:00,
2013-07-03 16:52:00,84.9,50.9,29.98,SE,132,3.0,30.0,31,0.00,,,0.00,Wunderground v.1.15,2013-07-03 21:52:00,
2013-07-03 17:02:00,84.5,50.5,29.98,SE,125,6.0,6.0,31,0.00,,,0.00,Wunderground v.1.15,2013-07-03 22:02:00,
2013-07-03 17:12:00,86.0,51.8,29.97,SSW,211,4.0,30.0,31,0.00,,,0.00,Wunderground v.1.15,2013-07-03 22:12:00,
2013-07-03 17:22:00,85.7,49.8,29.97,SSW,204,8.0,30.0,29,0.00,,,0.00,Wunderground v.1.15,2013-07-03 22:22:00,
2013-07-03 17:32:00,85.2,49.4,29.97,SW,216,8.0,30.0,29,0.00,,,0.00,Wunderground v.1.15,2013-07-03 22:32:00,
2013-07-03 17:42:00,85.2,50.3,29.96,SW,214,6.0,6.0,30,0.00,,,0.00,Wunderground v.1.15,2013-07-03 22:42:00,
2013-07-03 17:52:00,85.7,49.8,29.96,SE,131,6.0,6.0,29,0.00,,,0.00,Wunderground v.1.15,2013-07-03 22:52:00,
2013-07-03 18:02:00,84.3,48.6,29.96,SSW,197,7.0,7.0,29,0.00,,,0.00,Wunderground v.1.15,2013-07-03 23:02:00,
2013-07-03 18:12:00,84.3,50.4,29.96,SE,135,7.0,30.0,31,0.00,,,0.00,Wunderground v.1.15,2013-07-03 23:12:00,
2013-07-03 18:22:00,84.7,50.7,29.95,SE,136,7.0,30.0,31,0.00,,,0.00,Wunderground v.1.15,2013-07-03 23:22:00,
2013-07-03 18:32:00,83.8,49.9,29.95,SSE,148,9.0,9.0,31,0.00,,,0.00,Wunderground v.1.15,2013-07-03 23:32:00,
2013-07-03 18:42:00,84.0,50.1,29.95,SSE,162,8.0,30.0,31,0.00,,,0.00,Wunderground v.1.15,2013-07-03 23:42:00,
2013-07-03 18:52:00,83.8,50.8,29.95,SE,142,7.0,7.0,32,0.00,,,0.00,Wunderground v.1.15,2013-07-03 23:52:00,
2013-07-03 19:02:00,83.4,49.6,29.95,SSE,160,8.0,8.0,31,0.00,,,0.00,Wunderground v.1.15,2013-07-04 00:02:00,
2013-07-03 19:12:00,83.1,50.2,29.95,South,181,9.0,9.0,32,0.00,,,0.00,Wunderground v.1.15,2013-07-04 00:12:00,
2013-07-03 19:22:00,82.7,48.1,29.95,SE,127,9.0,30.0,30,0.00,,,0.00,Wunderground v.1.15,2013-07-04 00:22:00,
2013-07-03 19:31:00,82.6,48.9,29.95,SSE,149,8.0,8.0,31,0.00,,,0.00,Wunderground v.1.15,2013-07-04 00:31:00,
2013-07-03 19:41:00,82.0,48.4,29.95,SE,131,8.0,30.0,31,0.00,,,0.00,Wunderground v.1.15,2013-07-04 00:41:00,
2013-07-03 19:52:00,81.5,48.8,29.95,SE,131,9.0,9.0,32,0.00,,,0.00,Wunderground v.1.15,2013-07-04 00:52:00,
2013-07-03 20:02:00,80.6,49.6,29.96,SE,131,11.0,30.0,34,0.00,,,0.00,Wunderground v.1.15,2013-07-04 01:02:00,
2013-07-03 20:12:00,79.9,49.8,29.96,ESE,122,11.0,30.0,35,0.00,,,0.00,Wunderground v.1.15,2013-07-04 01:12:00,
2013-07-03 20:22:00,79.3,50.0,29.96,SE,132,10.0,10.0,36,0.00,,,0.00,Wunderground v.1.15,2013-07-04 01:22:00,
2013-07-03 20:32:00,78.5,50.1,29.96,SE,146,10.0,10.0,37,0.00,,,0.00,Wunderground v.1.15,2013-07-04 01:32:00,
2013-07-03 20:42:00,77.5,50.6,29.96,SE,131,8.0,8.0,39,0.00,,,0.00,Wunderground v.1.15,2013-07-04 01:42:00,
2013-07-03 21:02:00,76.1,50.7,29.97,SE,127,8.0,8.0,41,0.00,,,0.00,Wunderground v.1.15,2013-07-04 02:02:00,
2013-07-03 21:12:00,75.2,51.2,29.97,SE,135,7.0,7.0,43,0.00,,,0.00,Wunderground v.1.15,2013-07-04 02:12:00,
2013-07-03 21:22:00,74.4,51.1,29.97,SE,134,6.0,30.0,44,0.00,,,0.00,Wunderground v.1.15,2013-07-04 02:22:00,
2013-07-03 21:32:00,73.9,51.2,29.97,ESE,118,6.0,6.0,45,0.00,,,0.00,Wunderground v.1.15,2013-07-04 02:32:00,
2013-07-03 21:42:00,73.5,50.9,29.98,ESE,108,7.0,30.0,45,0.00,,,0.00,Wunderground v.1.15,2013-07-04 02:42:00,
2013-07-03 21:52:00,73.3,51.3,29.98,SE,124,7.0,7.0,46,0.00,,,0.00,Wunderground v.1.15,2013-07-04 02:52:00,
2013-07-03 22:02:00,72.8,50.8,29.99,SE,129,7.0,30.0,46,0.00,,,0.00,Wunderground v.1.15,2013-07-04 03:02:00,
2013-07-03 22:12:00,72.7,51.3,29.99,ESE,114,7.0,7.0,47,0.00,,,0.00,Wunderground v.1.15,2013-07-04 03:12:00,
2013-07-03 22:22:00,72.2,51.4,29.99,ESE,115,7.0,30.0,48,0.00,,,0.00,Wunderground v.1.15,2013-07-04 03:22:00,
2013-07-03 22:32:00,71.8,51.6,30.00,SE,131,7.0,7.0,49,0.00,,,0.00,Wunderground v.1.15,2013-07-04 03:32:00,
2013-07-03 22:42:00,71.5,51.9,30.00,SE,128,6.0,30.0,50,0.00,,,0.00,Wunderground v.1.15,2013-07-04 03:42:00,
2013-07-03 23:02:00,70.2,52.3,30.00,SE,133,4.0,30.0,53,0.00,,,0.00,Wunderground v.1.15,2013-07-04 04:02:00,
2013-07-03 23:12:00,69.9,52.0,30.00,SE,136,4.0,4.0,53,0.00,,,0.00,Wunderground v.1.15,2013-07-04 04:12:00,
2013-07-03 23:21:00,69.4,52.0,30.00,SE,139,3.0,30.0,54,0.00,,,0.00,Wunderground v.1.15,2013-07-04 04:21:00,
2013-07-03 23:31:00,69.0,52.2,30.00,SE,124,3.0,30.0,55,0.00,,,0.00,Wunderground v.1.15,2013-07-04 04:31:00,
2013-07-03 23:41:00,68.4,52.1,30.00,ESE,122,4.0,30.0,56,0.00,,,0.00,Wunderground v.1.15,2013-07-04 04:41:00,
2013-07-03 23:51:00,67.5,52.2,30.00,SE,133,4.0,4.0,58,0.00,,,0.00,Wunderground v.1.15,2013-07-04 04:51:00,